Home > Weather > Moga > Past weeks

Flag for India Past Weather in Moga, Punjab, India — Yesterday and Last 2 Weeks

Now
79 °F

Fog.


Feels Like: 82 °F
Forecast: 81 / 105 °F
Wind: No wind

Location: Amritsar Airport

Current Time: May 31, 2016 at 12:09:42 AM

Latest Report: May 30, 2016 at 11:30 PM


Visibility: 2 mi

Pressure: 29.65 "Hg

Humidity: 84%

Dew Point: 73 °F

Location of MogaLocation

Past Weather in Moga — Graph

°F

Moga Temperature Yesterday

Maximum temperature yesterday: 90 °F (at 3:00 PM)
Minimum temperature yesterday: 66 °F (at 3:30 AM)
Average temperature yesterday: 81 °F

High & Low Weather Summary for the Past Weeks

 TemperatureHumidityPressure
High111 °F (May 18, 3:30 PM)100% (May 24, 4:00 AM)29.77 "Hg (May 24, 4:00 AM)
Low66 °F (May 30, 3:30 AM)9% (May 17, 2:30 PM)29.36 "Hg (May 21, 5:00 PM)
Average90 °F39%29.52 "Hg
* Reported May 15 10:30 PM — May 30 11:00 PM, Moga, Weather by CustomWeather, © 2016

Note: Actual official high and low records may vary slightly from our data, if they occured in-between our weather recording intervals... More about our weather records

Advertising

Moga Weather History for the Previous 24 Hours

Scroll right to see more
 ConditionsComfort  
Time TempWeatherWind HumidityBarometerVisibility
11:00 PM
Mon, May 30
79 °FPassing clouds.No wind84%29.65 "Hg2 mi
10:30 PM81 °FPassing clouds.No wind79%29.65 "Hg2 mi
10:00 PM81 °FPassing clouds.No wind79%29.65 "Hg2 mi
9:30 PM81 °FPassing clouds.No wind79%29.65 "Hg2 mi
9:00 PM82 °FPassing clouds.No wind74%29.65 "Hg3 mi
8:30 PM82 °FPassing clouds.No wind74%29.65 "Hg3 mi
8:00 PM84 °FClear.No wind66%29.65 "Hg4 mi
7:30 PM86 °FClear.No wind66%29.65 "Hg4 mi
6:30 PM88 °FClear.2 mph52%29.62 "Hg4 mi
5:30 PM90 °FClear.2 mph46%29.59 "Hg4 mi
5:00 PM90 °FClear.7 mph41%29.59 "Hg4 mi
4:30 PM88 °FClear.8 mph46%29.62 "Hg4 mi
4:00 PM90 °FClear.8 mph43%29.62 "Hg4 mi
3:30 PM90 °FScattered clouds.12 mph41%29.62 "Hg4 mi
3:00 PM90 °FScattered clouds.9 mph41%29.65 "Hg3 mi
2:30 PM86 °FScattered clouds.9 mph49%29.65 "Hg3 mi
2:00 PM86 °FScattered clouds.8 mph49%29.65 "Hg3 mi
1:30 PM84 °FScattered clouds.7 mph51%29.65 "Hg3 mi
1:00 PM82 °FScattered clouds.9 mph58%29.68 "Hg3 mi
12:30 PM82 °FScattered clouds.7 mph58%29.68 "Hg2 mi
12:00 PM79 °FBroken clouds.9 mph54%29.65 "Hg2 mi
11:30 AM81 °FBroken clouds.9 mph45%29.68 "Hg2 mi
11:00 AM81 °FMore clouds than sun.7 mph54%29.68 "Hg2 mi
10:30 AM82 °FMore clouds than sun.5 mph51%29.71 "Hg2 mi
10:00 AM81 °FThunderstorms. More clouds than sun.6 mph54%29.68 "Hg2 mi
9:30 AM81 °FThunderstorms. More clouds than sun.8 mph54%29.68 "Hg2 mi
9:00 AM79 °FThunderstorms. More clouds than sun.12 mph58%29.68 "Hg2 mi
8:00 AM77 °FScattered clouds.3 mph61%29.59 "Hg2 mi
7:30 AM77 °FBroken clouds.2 mph57%29.53 "Hg2 mi
7:00 AM73 °FScattered clouds.5 mph61%29.53 "Hg2 mi
6:30 AM73 °FScattered clouds.7 mph65%29.50 "Hg2 mi
6:00 AM72 °FThundershowers. Scattered clouds.6 mph73%29.50 "Hg2 mi
5:30 AM70 °FThundershowers. Passing clouds.7 mph73%29.50 "Hg2 mi
5:00 AM68 °FThunderstorms. Mostly cloudy.7 mph88%29.53 "Hg1 mi
3:30 AM66 °FStrong thunderstorms. Mostly cloudy.35 mph100%29.71 "Hg0 mi
3:00 AM79 °FThunderstorms. Mostly cloudy.6 mph74%29.53 "Hg2 mi
2:00 AM82 °FThunderstorms. Partly cloudy.6 mph62%29.53 "Hg2 mi
1:00 AM84 °FHaze.5 mph55%29.53 "Hg2 mi
12:30 AM86 °FHaze.5 mph49%29.53 "Hg2 mi
12:00 AM86 °FHaze.3 mph46%29.53 "Hg2 mi
Weather by CustomWeather, © 2016

See weather overviewHow to use our weather pages